Auburn, Auburn Municipal Airport, United States
Lat: 38.95N, Lon: 121.07W
Local Info
Past Weather Observations for Thursday, August 28, 2014

NOTE: This archive is for the closest National Weather Service station to Auburn, Auburn Municipal Airport. Information may differ from the station used for current weather conditions.

Click here for Long-term Archive

Time Weather Temperature Dewpoint Humidity Pressure Winds Precip Visibility
23:55
Clear
75°F / 24°C 48°F / 9°C 39% 29.98 in
(1015 mb)
E 8.1 mph
(E 13 kph)
- 10SM
23:35
Clear
73°F / 23°C 48°F / 9°C 41% 29.98 in
(1015 mb)
E 6.9 mph
(E 11 kph)
- 10SM
23:15
Clear
73°F / 23°C 48°F / 9°C 41% 29.98 in
(1015 mb)
E 5.8 mph
(E 9 kph)
- 10SM
22:55
Clear
73°F / 23°C 48°F / 9°C 41% 29.98 in
(1015 mb)
E 3.5 mph
(E 6 kph)
- 10SM
22:35
Clear
73°F / 23°C 48°F / 9°C 41% 29.98 in
(1015 mb)
E 6.9 mph
(E 11 kph)
- 10SM
22:15
Clear
75°F / 24°C 48°F / 9°C 39% 29.98 in
(1015 mb)
ESE 5.8 mph
(ESE 9 kph)
- 10SM
21:55
Clear
73°F / 23°C 46°F / 8°C 38% 29.98 in
(1015 mb)
E 4.6 mph
(E 7 kph)
- 10SM
21:35
Clear
72°F / 22°C 46°F / 8°C 41% 29.98 in
(1015 mb)
ESE 4.6 mph
(ESE 7 kph)
- 10SM
21:15
Clear
72°F / 22°C 46°F / 8°C 41% 29.98 in
(1015 mb)
Calm - 10SM
20:55
Clear
75°F / 24°C 48°F / 9°C 39% 29.98 in
(1015 mb)
Calm - 10SM
20:35
Clear
75°F / 24°C 46°F / 8°C 36% 29.98 in
(1015 mb)
SSE 3.5 mph
(SSE 6 kph)
- 10SM
20:15
Clear
75°F / 24°C 45°F / 7°C 34% 29.98 in
(1015 mb)
Calm - 10SM
19:55
Clear
75°F / 24°C 46°F / 8°C 36% 29.98 in
(1015 mb)
Calm - 10SM
19:35
Clear
79°F / 26°C 48°F / 9°C 34% 29.98 in
(1015 mb)
Calm - 10SM
19:15
Clear
77°F / 25°C 46°F / 8°C 34% 29.95 in
(1014 mb)
Calm - 10SM
18:55
Clear
81°F / 27°C 46°F / 8°C 30% 29.98 in
(1015 mb)
Calm - 10SM
18:35
Clear
84°F / 29°C 48°F / 9°C 29% 29.98 in
(1015 mb)
Calm - 10SM
18:15
Clear
88°F / 31°C 48°F / 9°C 25% 29.98 in
(1015 mb)
SSW 4.6 mph
(SSW 7 kph)
- 10SM
17:55
Clear
88°F / 31°C 48°F / 9°C 25% 29.98 in
(1015 mb)
W 4.6 mph
(W 7 kph)
- 10SM
17:35
Clear
90°F / 32°C 46°F / 8°C 22% 29.98 in
(1015 mb)
W 4.6 mph
(W 7 kph)
- 10SM
17:15
Clear
90°F / 32°C 46°F / 8°C 22% 29.98 in
(1015 mb)
SSW 3.5 mph
(SSW 6 kph)
- 10SM
16:55
Clear
90°F / 32°C 48°F / 9°C 24% 29.98 in
(1015 mb)
SSW 3.5 mph
(SSW 6 kph)
- 10SM
16:35
Clear
91°F / 33°C 48°F / 9°C 23% 29.98 in
(1015 mb)
SSW 6.9 mph
(SSW 11 kph)
- 10SM
16:15
Clear
91°F / 33°C 46°F / 8°C 21% 29.98 in
(1015 mb)
SSW 3.5 mph
(SSW 6 kph)
- 10SM
15:55
Clear
91°F / 33°C 46°F / 8°C 21% 29.98 in
(1015 mb)
SSW 6.9 mph
(SSW 11 kph)
- 10SM
15:35
Clear
90°F / 32°C 46°F / 8°C 22% 29.98 in
(1015 mb)
SSW 6.9 mph
(SSW 11 kph)
- 10SM
15:15
Clear
91°F / 33°C 46°F / 8°C 21% 29.98 in
(1015 mb)
NW 8.1 mph
(NW 13 kph)
- 10SM
14:55
Clear
91°F / 33°C 46°F / 8°C 21% 30.01 in
(1016 mb)
W 5.8 mph
(W 9 kph)
- 10SM
14:35
Clear
91°F / 33°C 48°F / 9°C 23% 30.01 in
(1016 mb)
W 4.6 mph
(W 7 kph)
- 10SM
14:15
Clear
91°F / 33°C 48°F / 9°C 23% 30.01 in
(1016 mb)
SSW 8.1 mph
(SSW 13 kph)
- 10SM
13:55
Clear
90°F / 32°C 48°F / 9°C 24% 30.01 in
(1016 mb)
SSW 9.2 mph
(SSW 15 kph)
- 10SM
13:35
Clear
90°F / 32°C 50°F / 10°C 26% 30.04 in
(1017 mb)
SSW 8.1 mph
(SSW 13 kph)
- 10SM
13:15
Clear
90°F / 32°C 50°F / 10°C 26% 30.04 in
(1017 mb)
SSW 6.9 mph
(SSW 11 kph)
- 10SM
12:55
Clear
88°F / 31°C 50°F / 10°C 27% 30.04 in
(1017 mb)
SSW 6.9 mph
(SSW 11 kph)
- 10SM
12:35
Clear
90°F / 32°C 48°F / 9°C 24% 30.04 in
(1017 mb)
SSW 10.4 mph
(SSW 17 kph)
- 10SM
12:15
Clear
88°F / 31°C 48°F / 9°C 25% 30.04 in
(1017 mb)
SSW 10.4 mph
(SSW 17 kph)
- 10SM
11:55
Clear
88°F / 31°C 50°F / 10°C 27% 30.06 in
(1018 mb)
SSW 5.8 mph
(SSW 9 kph)
- 10SM
11:35
Clear
88°F / 31°C 50°F / 10°C 27% 30.06 in
(1018 mb)
W 9.2 mph
(W 15 kph)
- 10SM
11:15
Clear
88°F / 31°C 50°F / 10°C 27% 30.06 in
(1018 mb)
SSW 6.9 mph
(SSW 11 kph)
- 10SM
10:55
Clear
88°F / 31°C 50°F / 10°C 27% 30.06 in
(1018 mb)
W 8.1 mph
(W 13 kph)
- 10SM
10:35
Clear
88°F / 31°C 52°F / 11°C 29% 30.06 in
(1018 mb)
SSW 6.9 mph
(SSW 11 kph)
- 10SM
10:15
Clear
88°F / 31°C 52°F / 11°C 29% 30.06 in
(1018 mb)
SSW 6.9 mph
(SSW 11 kph)
- 10SM
09:55
Clear
88°F / 31°C 48°F / 9°C 25% 30.06 in
(1018 mb)
SSW 4.6 mph
(SSW 7 kph)
- 10SM
09:35
Clear
88°F / 31°C 48°F / 9°C 25% 30.06 in
(1018 mb)
Calm - 10SM
09:15
Clear
86°F / 30°C 48°F / 9°C 27% 30.06 in
(1018 mb)
SSE 4.6 mph
(SSE 7 kph)
- 10SM
08:55
Clear
84°F / 29°C 48°F / 9°C 29% 30.06 in
(1018 mb)
SSE 3.5 mph
(SSE 6 kph)
- 10SM
08:35
Clear
84°F / 29°C 50°F / 10°C 31% 30.09 in
(1019 mb)
ESE 3.5 mph
(ESE 6 kph)
- 10SM
08:15
Clear
82°F / 28°C 50°F / 10°C 32% 30.09 in
(1019 mb)
ESE 4.6 mph
(ESE 7 kph)
- 10SM
07:55
Clear
81°F / 27°C 50°F / 10°C 34% 30.09 in
(1019 mb)
ESE 5.8 mph
(ESE 9 kph)
- 10SM
07:35
Clear
79°F / 26°C 50°F / 10°C 37% 30.09 in
(1019 mb)
E 6.9 mph
(E 11 kph)
- 10SM
07:15
Clear
75°F / 24°C 48°F / 9°C 39% 30.06 in
(1018 mb)
E 8.1 mph
(E 13 kph)
- 10SM
06:55
Clear
73°F / 23°C 48°F / 9°C 41% 30.06 in
(1018 mb)
E 8.1 mph
(E 13 kph)
- 10SM
06:35
Clear
73°F / 23°C 48°F / 9°C 41% 30.06 in
(1018 mb)
E 8.1 mph
(E 13 kph)
- 10SM
06:15
Clear
72°F / 22°C 48°F / 9°C 44% 30.06 in
(1018 mb)
SE 4.6 mph
(SE 7 kph)
- 10SM
05:55
Clear
72°F / 22°C 48°F / 9°C 44% 30.06 in
(1018 mb)
ESE 5.8 mph
(ESE 9 kph)
- 10SM
05:35
Clear
70°F / 21°C 48°F / 9°C 46% 30.06 in
(1018 mb)
E 5.8 mph
(E 9 kph)
- 10SM
05:15
Clear
72°F / 22°C 48°F / 9°C 44% 30.06 in
(1018 mb)
E 6.9 mph
(E 11 kph)
- 10SM
04:55
Clear
72°F / 22°C 48°F / 9°C 44% 30.06 in
(1018 mb)
E 9.2 mph
(E 15 kph)
- 10SM
04:35
Clear
72°F / 22°C 48°F / 9°C 44% 30.06 in
(1018 mb)
E 8.1 mph
(E 13 kph)
- 10SM
04:15
Clear
72°F / 22°C 48°F / 9°C 44% 30.06 in
(1018 mb)
E 9.2 mph
(E 15 kph)
- 10SM
03:55
Clear
72°F / 22°C 48°F / 9°C 44% 30.06 in
(1018 mb)
E 9.2 mph
(E 15 kph)
- 10SM
03:35
Clear
72°F / 22°C 48°F / 9°C 44% 30.06 in
(1018 mb)
E 8.1 mph
(E 13 kph)
- 10SM
03:15
Clear
72°F / 22°C 48°F / 9°C 44% 30.06 in
(1018 mb)
E 10.4 mph
(E 17 kph)
- 10SM
02:55
Clear
72°F / 22°C 48°F / 9°C 44% 30.06 in
(1018 mb)
E 9.2 mph
(E 15 kph)
- 10SM
02:35
Clear
72°F / 22°C 48°F / 9°C 44% 30.06 in
(1018 mb)
E 8.1 mph
(E 13 kph)
- 10SM
02:15
Clear
72°F / 22°C 48°F / 9°C 44% 30.06 in
(1018 mb)
E 8.1 mph
(E 13 kph)
- 10SM
01:55
Clear
72°F / 22°C 48°F / 9°C 44% 30.06 in
(1018 mb)
E 6.9 mph
(E 11 kph)
- 10SM
01:35
Clear
73°F / 23°C 48°F / 9°C 41% 30.06 in
(1018 mb)
E 8.1 mph
(E 13 kph)
- 10SM
01:15
Clear
73°F / 23°C 48°F / 9°C 41% 30.06 in
(1018 mb)
E 9.2 mph
(E 15 kph)
- 10SM
00:55
Clear
73°F / 23°C 48°F / 9°C 41% 30.06 in
(1018 mb)
E 9.2 mph
(E 15 kph)
- 10SM
00:35
Clear
72°F / 22°C 48°F / 9°C 44% 30.06 in
(1018 mb)
E 8.1 mph
(E 13 kph)
- 10SM
00:15
Clear
72°F / 22°C 48°F / 9°C 44% 30.06 in
(1018 mb)
E 8.1 mph
(E 13 kph)
- 10SM
Time Weather Temperature Dewpoint Humidity Pressure Winds Precip Visibility


Weather for websites

WeatherForYou.com, LLC is not responsible for any damages or problems caused by this service. Current weather conditions are obtained from the closest station including government and personal stations which may have varying degrees of accuracy. Weather forecasts are derived from the NOAA NDFD. Like all things, this site belongs to Jesus Christ... He just trusts me to maintain it. If you have any questions or comments email webmaster@weatherforyou.com

Copyright © 2014, WeatherForYou.com LLC. All rights reserved.